Location: ???????
(54.6339°N, 39.4245°E)
Time: 14:32:33
(UTC+00:00)

Lacrosse 4 Rocket - Pass Details

Date: 19 May 2025
Orbit: 513 x 576 km, 68.0° (Epoch: 19 June)

Event Time Altitude Azimuth Distance (km) Brightness Sun altitude
Rises 18:42:53 0° 253° (WSW) 2,649 5.1 -8.3°
Reaches altitude 10° 18:45:16 10° 265° (W) 1,772 4.4 -8.5°
Maximum altitude 18:48:42 28° 326° (NW) 1,028 3.7 -8.8°
Drops below altitude 10° 18:52:14 10° 27° (NNE) 1,811 4.4 -9.1°
Sets 18:54:42 0° 39° (NE) 2,719 5.1 -9.3°
